DW6356 Weather Reports


Display with metric or nautical units.
time (UTC)temp
F
wind
direction
speed
MPH
gust
MPH
rain 1hr
in
rain 24hr
in
rain mn
in
humidity
%
barometer
mb
20260506231511 59 110 0.0 3.0 0.00 0.00 0.00 78 1008.5
20260506230019 59 148 0.0 4.0 0.00 0.00 0.00 78 1008.4
20260506224508 59 160 1.0 5.0 0.00 0.00 0.00 77 1008.2
20260506223007 59 328 1.0 4.0 0.00 0.00 0.00 77 1008.1
20260506221504 60 323 1.0 8.0 0.00 0.00 0.00 76 1008.4
20260506220133 60 65 0.0 4.0 0.00 0.00 0.00 76 1008.5
20260506214502 60 176 1.0 6.0 0.00 0.00 0.00 76 1008.2
20260506213111 60 18 1.0 6.0 0.00 0.00 0.00 76 1008.0
20260506211559 61 283 0.0 4.0 0.00 0.00 0.00 75 1008.0
20260506210105 61 64 1.0 8.0 0.00 0.00 0.00 74 1007.8
20260506204606 61 207 2.0 8.0 0.00 0.00 0.00 74 1007.4
20260506203056 61 314 0.0 5.0 0.00 0.00 0.00 74 1007.6
20260506201556 61 45 1.0 3.0 0.00 0.00 0.00 74 1007.9
20260506200055 61 226 0.0 7.0 0.00 0.00 0.00 74 1007.9
20260506194555 62 289 1.0 4.0 0.00 0.00 0.00 73 1007.9
20260506193055 62 127 1.0 4.0 0.00 0.00 0.00 72 1007.8
20260506191602 62 326 0.0 4.0 0.00 0.00 0.00 72 1007.8
20260506190055 63 320 0.0 4.0 0.00 0.00 0.00 71 1007.8
20260506184605 63 85 0.0 2.0 0.00 0.00 0.00 69 1007.5
20260506183050 64 300 0.0 4.0 0.00 0.00 0.00 68 1007.4
20260506181550 64 113 1.0 4.0 0.00 0.00 0.00 67 1007.1
20260506180051 65 68 1.0 6.0 0.00 0.00 0.00 66 1007.1
20260506174549 66 330 0.0 5.0 0.00 0.00 0.00 65 1006.9
20260506173049 66 15 1.0 7.0 0.00 0.00 0.00 63 1007.0
20260506171557 67 16 2.0 6.0 0.00 0.00 0.00 61 1006.9
20260506170052 68 1 1.0 10.0 0.00 0.00 0.00 60 1006.8
20260506164548 68 150 3.0 7.0 0.00 0.00 0.00 59 1007.0
20260506163044 69 340 2.0 7.0 0.00 0.00 0.00 58 1007.1
20260506161545 69 340 2.0 9.0 0.00 0.00 0.00 58 1007.3
20260506160057 70 40 1.0 5.0 0.00 0.00 0.00 57 1007.4
20260506154541 71 181 2.0 13.0 0.00 0.00 0.00 54 1007.4
20260506153040 72 41 1.0 6.0 0.00 0.00 0.00 55 1007.2
20260506151542 73 27 1.0 5.0 0.00 0.00 0.00 52 1007.2
20260506150038 72 49 0.0 11.0 0.00 0.00 0.00 52 1007.3
20260506144551 72 101 2.0 7.0 0.00 0.00 0.00 51 1007.4
20260506143036 73 108 2.0 8.0 0.00 0.00 0.00 51 1007.5
20260506141535 73 201 2.0 9.0 0.00 0.00 0.00 50 1007.6
20260506140035 73 30 2.0 7.0 0.00 0.00 0.00 51 1007.5
20260506134534 74 262 4.0 10.0 0.00 0.00 0.00 49 1007.6
20260506133034 74 276 2.0 8.0 0.00 0.00 0.00 50 1007.7
20260506131539 73 345 2.0 8.0 0.00 0.00 0.00 47 1007.7
20260506130032 74 85 2.0 6.0 0.00 0.00 0.00 49 1007.7
20260506124533 75 269 2.0 8.0 0.00 0.00 0.00 49 1007.7
20260506123029 75 283 2.0 8.0 0.00 0.00 0.00 47 1007.4
20260506121527 75 21 1.0 7.0 0.00 0.00 0.00 47 1007.5
20260506120027 75 3 4.0 9.0 0.00 0.00 0.00 49 1007.7
20260506114535 73 40 1.0 5.0 0.00 0.00 0.00 51 1007.7
20260506113025 73 359 1.0 5.0 0.00 0.00 0.00 51 1008.1
20260506111525 75 120 2.0 5.0 0.00 0.00 0.00 46 1008.2
20260506110027 74 51 1.0 5.0 0.00 0.00 0.00 47 1008.4
20260506104523 75 11 2.0 6.0 0.00 0.00 0.00 45 1008.5
20260506103020 75 309 1.0 7.0 0.00 0.00 0.00 48 1008.4
20260506101520 74 100 1.0 5.0 0.00 0.00 0.00 49 1008.6
20260506100023 74 91 3.0 8.0 0.00 0.00 0.00 49 1009.0
20260506094516 73 127 1.0 6.0 0.00 0.00 0.00 51 1009.1
20260506093014 73 60 1.0 8.0 0.00 0.00 0.00 52 1009.2
20260506091515 73 338 1.0 5.0 0.00 0.00 0.00 50 1009.4
20260506090009 72 153 2.0 7.0 0.00 0.00 0.00 54 1009.3
20260506084508 71 57 1.0 10.0 0.00 0.00 0.00 55 1009.4
20260506083106 70 65 0.0 6.0 0.00 0.00 0.00 56 1009.2
20260506081507 70 138 2.0 7.0 0.00 0.00 0.00 55 1009.2
20260506073100 69 136 1.0 4.0 0.00 0.00 0.00 58 1009.2
20260506071601 69 140 0.0 5.0 0.00 0.00 0.00 60 1009.3
20260506061540 61 43 0.0 0.0 0.00 0.00 0.00 74 1009.6
20260506044535 52 101 0.0 1.0 0.00 0.00 0.00 91 1009.2
20260506043026 51 100 0.0 0.0 0.00 0.00 0.00 92 1009.3
20260506041525 50 98 0.0 0.0 0.00 0.00 0.00 92 1009.3
20260506040023 50 97 0.0 1.0 0.00 0.00 0.00 92 1009.1
20260506034521 51 98 0.0 0.0 0.00 0.00 0.00 91 1009.1
20260506033026 51 64 0.0 0.0 0.00 0.00 0.00 90 1009.0
20260506031528 51 63 0.0 0.0 0.00 0.00 0.00 90 1009.0
20260506030038 52 134 0.0 1.0 0.00 0.00 0.00 89 1008.8
20260506024521 52 134 0.0 0.0 0.00 0.00 0.00 89 1008.6
20260506023010 52 134 0.0 0.0 0.00 0.00 0.00 87 1008.6
20260506021508 53 134 0.0 0.0 0.00 0.00 0.00 86 1008.5
20260506020003 54 134 0.0 0.0 0.00 0.00 0.00 84 1008.3
20260506014501 54 134 0.0 1.0 0.00 0.00 0.00 83 1008.2
20260506013103 55 159 0.0 2.0 0.00 0.00 0.00 82 1008.1
20260506011559 55 68 0.0 2.0 0.00 0.00 0.00 82 1008.0
20260506010106 55 120 0.0 3.0 0.00 0.00 0.00 81 1007.9
20260506004555 56 113 0.0 3.0 0.00 0.00 0.00 81 1008.0
20260506003054 56 148 0.0 3.0 0.00 0.00 0.00 81 1007.9
20260506001556 56 18 0.0 3.0 0.00 0.00 0.00 81 1007.7
20260506000049 56 30 0.0 4.0 0.00 0.00 0.00 79 1007.8
20260505234549 57 358 0.0 3.0 0.00 0.00 0.00 78 1007.7
20260505233052 57 314 0.0 4.0 0.00 0.00 0.00 79 1007.6
20260505231547 56 148 1.0 8.0 0.00 0.00 0.00 79 1007.7